Location: Habighorst
(52.7089°N, 10.2278°E)
Time: 22:02:17
(UTC+00:00)

Cosmos 2263 Rocket - Pass Details

Date: 13 January 2026
Orbit: 821 x 849 km, 71.0° (Epoch: 7 February)

Event Time Altitude Azimuth Distance (km) Brightness Sun altitude
Exits shadow 05:26:31 13° 333° (NNW) 2,279 4.1 -17.1°
Maximum altitude 05:27:40 14° 346° (NNW) 2,236 4.1 -16.9°
Drops below altitude 10° 05:30:26 10° 16° (NNE) 2,484 4.7 -16.5°
Sets 05:34:21 0° 42° (NE) 3,424 5.7 -16.0°
